Time,TemperatureF,DewpointF,PressureIn,WindDirection,WindDirectionDegrees,WindSpeedMPH,WindSpeedGustMPH,Humidity,HourlyPrecipIn,Conditions,Clouds,dailyrainin,SoftwareType,DateUTC
2013-03-30 00:00:00,52.7,38.8,30.21,SW,217,4.0,4.0,59,0.00,,,0.00,Wunderground v.1.15,2013-03-30 04:00:00,
2013-03-30 00:05:00,52.8,38.9,30.21,WSW,248,4.0,5.0,59,0.00,,,0.00,Wunderground v.1.15,2013-03-30 04:05:00,
2013-03-30 00:10:00,52.8,38.9,30.21,SW,229,4.0,4.0,59,0.00,,,0.00,Wunderground v.1.15,2013-03-30 04:10:00,
2013-03-30 00:15:00,52.8,38.9,30.21,SW,220,4.0,5.0,59,0.00,,,0.00,Wunderground v.1.15,2013-03-30 04:15:00,
2013-03-30 00:25:00,52.9,39.0,30.20,SW,227,4.0,5.0,59,0.00,,,0.00,Wunderground v.1.15,2013-03-30 04:25:00,
2013-03-30 00:30:00,53.0,39.0,30.21,SW,232,5.0,5.0,59,0.00,,,0.00,Wunderground v.1.15,2013-03-30 04:30:00,
2013-03-30 00:35:00,52.9,39.0,30.21,SW,236,4.0,5.0,59,0.00,,,0.00,Wunderground v.1.15,2013-03-30 04:35:00,
2013-03-30 00:45:00,52.9,39.0,30.21,West,264,3.0,4.0,59,0.00,,,0.00,Wunderground v.1.15,2013-03-30 04:45:00,
2013-03-30 00:50:00,52.8,39.3,30.21,West,273,3.0,3.0,60,0.00,,,0.00,Wunderground v.1.15,2013-03-30 04:50:00,
2013-03-30 01:00:00,52.8,39.3,30.20,West,259,1.0,5.0,60,0.00,,,0.00,Wunderground v.1.15,2013-03-30 05:00:00,
2013-03-30 01:10:00,52.8,39.7,30.20,West,279,3.0,3.0,61,0.00,,,0.00,Wunderground v.1.15,2013-03-30 05:10:00,
2013-03-30 01:15:00,52.9,39.8,30.20,SW,234,4.0,9.0,61,0.00,,,0.00,Wunderground v.1.15,2013-03-30 05:15:00,
2013-03-30 01:25:00,53.0,39.9,30.21,WSW,248,4.0,5.0,61,0.00,,,0.00,Wunderground v.1.15,2013-03-30 05:25:00,
2013-03-30 01:30:00,53.0,39.9,30.21,WSW,241,3.0,4.0,61,0.00,,,0.00,Wunderground v.1.15,2013-03-30 05:30:00,
2013-03-30 01:40:00,53.1,40.4,30.21,WSW,257,4.0,6.0,62,0.00,,,0.00,Wunderground v.1.15,2013-03-30 05:40:00,
2013-03-30 01:45:00,53.2,40.1,30.21,WNW,294,4.0,6.0,61,0.00,,,0.00,Wunderground v.1.15,2013-03-30 05:45:00,
2013-03-30 01:55:00,53.0,40.3,30.20,SW,229,5.0,5.0,62,0.00,,,0.00,Wunderground v.1.15,2013-03-30 05:55:00,
2013-03-30 02:00:00,53.1,40.4,30.20,WNW,282,4.0,4.0,62,0.00,,,0.00,Wunderground v.1.15,2013-03-30 06:00:00,
2013-03-30 02:10:00,52.9,40.2,30.20,West,277,2.0,2.0,62,0.00,,,0.00,Wunderground v.1.15,2013-03-30 06:10:00,
2013-03-30 02:15:00,52.8,40.5,30.20,West,277,2.0,2.0,63,0.00,,,0.00,Wunderground v.1.15,2013-03-30 06:15:00,
2013-03-30 02:25:00,52.6,40.4,30.20,West,277,1.0,2.0,63,0.00,,,0.00,Wunderground v.1.15,2013-03-30 06:25:00,
2013-03-30 02:35:00,52.5,40.3,30.20,West,281,2.0,3.0,63,0.00,,,0.00,Wunderground v.1.15,2013-03-30 06:35:00,
2013-03-30 02:45:00,52.4,40.6,30.19,West,281,1.0,1.0,64,0.00,,,0.00,Wunderground v.1.15,2013-03-30 06:45:00,
2013-03-30 02:50:00,52.3,40.5,30.19,West,281,0.0,0.0,64,0.00,,,0.00,Wunderground v.1.15,2013-03-30 06:50:00,
2013-03-30 03:00:00,52.0,40.6,30.19,West,281,0.0,0.0,65,0.00,,,0.00,Wunderground v.1.15,2013-03-30 07:00:00,
2013-03-30 03:05:00,51.8,40.8,30.18,West,281,0.0,1.0,66,0.00,,,0.00,Wunderground v.1.15,2013-03-30 07:05:00,
2013-03-30 03:15:00,51.5,40.9,30.18,West,281,0.0,1.0,67,0.00,,,0.00,Wunderground v.1.15,2013-03-30 07:15:00,
2013-03-30 03:25:00,51.5,40.9,30.18,West,281,0.0,0.0,67,0.00,,,0.00,Wunderground v.1.15,2013-03-30 07:25:00,
2013-03-30 03:30:00,51.6,41.4,30.18,West,281,0.0,0.0,68,0.00,,,0.00,Wunderground v.1.15,2013-03-30 07:30:00,
2013-03-30 03:40:00,51.3,41.5,30.17,West,281,0.0,0.0,69,0.00,,,0.00,Wunderground v.1.15,2013-03-30 07:40:00,
2013-03-30 03:50:00,51.3,41.8,30.17,West,281,0.0,0.0,70,0.00,,,0.00,Wunderground v.1.15,2013-03-30 07:50:00,
2013-03-30 03:55:00,51.4,42.3,30.17,West,281,0.0,0.0,71,0.00,,,0.00,Wunderground v.1.15,2013-03-30 07:55:00,
2013-03-30 04:05:00,51.0,41.9,30.17,West,281,0.0,0.0,71,0.00,,,0.00,Wunderground v.1.15,2013-03-30 08:05:00,
2013-03-30 04:10:00,50.6,41.5,30.17,West,281,0.0,0.0,71,0.00,,,0.00,Wunderground v.1.15,2013-03-30 08:10:00,
2013-03-30 04:20:00,49.9,41.9,30.17,West,281,0.0,0.0,74,0.00,,,0.00,Wunderground v.1.15,2013-03-30 08:20:00,
2013-03-30 04:25:00,49.7,41.7,30.17,West,281,0.0,0.0,74,0.00,,,0.00,Wunderground v.1.15,2013-03-30 08:25:00,
2013-03-30 04:35:00,49.9,41.6,30.17,West,281,0.0,1.0,73,0.00,,,0.00,Wunderground v.1.15,2013-03-30 08:35:00,
2013-03-30 04:40:00,49.6,41.7,30.17,West,281,0.0,0.0,74,0.00,,,0.00,Wunderground v.1.15,2013-03-30 08:40:00,
2013-03-30 04:50:00,49.4,41.8,30.17,West,281,0.0,0.0,75,0.00,,,0.00,Wunderground v.1.15,2013-03-30 08:50:00,
2013-03-30 04:55:00,49.5,42.2,30.17,West,281,0.0,0.0,76,0.00,,,0.00,Wunderground v.1.15,2013-03-30 08:55:00,
2013-03-30 05:05:00,49.3,42.1,30.17,West,281,0.0,0.0,76,0.00,,,0.00,Wunderground v.1.15,2013-03-30 09:05:00,
2013-03-30 05:15:00,48.9,42.0,30.17,West,281,0.0,0.0,77,0.00,,,0.00,Wunderground v.1.15,2013-03-30 09:15:00,
2013-03-30 05:20:00,48.8,42.2,30.18,West,281,0.0,0.0,78,0.00,,,0.00,Wunderground v.1.15,2013-03-30 09:20:00,
2013-03-30 05:30:00,48.5,42.0,30.18,West,281,0.0,0.0,78,0.00,,,0.00,Wunderground v.1.15,2013-03-30 09:30:00,
2013-03-30 05:35:00,48.5,42.3,30.18,West,281,0.0,0.0,79,0.00,,,0.00,Wunderground v.1.15,2013-03-30 09:35:00,
2013-03-30 05:45:00,48.6,42.4,30.18,West,281,0.0,0.0,79,0.00,,,0.00,Wunderground v.1.15,2013-03-30 09:45:00,
2013-03-30 05:55:00,48.6,42.4,30.18,West,281,0.0,0.0,79,0.00,,,0.00,Wunderground v.1.15,2013-03-30 09:55:00,
2013-03-30 06:00:00,48.7,42.1,30.18,West,281,0.0,0.0,78,0.00,,,0.00,Wunderground v.1.15,2013-03-30 10:00:00,
2013-03-30 06:10:00,49.0,42.1,30.19,West,281,0.0,0.0,77,0.00,,,0.00,Wunderground v.1.15,2013-03-30 10:10:00,
2013-03-30 06:15:00,49.2,42.3,30.19,West,281,0.0,0.0,77,0.00,,,0.00,Wunderground v.1.15,2013-03-30 10:15:00,
2013-03-30 06:25:00,49.4,41.8,30.19,West,281,0.0,0.0,75,0.00,,,0.00,Wunderground v.1.15,2013-03-30 10:25:00,
2013-03-30 06:35:00,49.6,42.0,30.19,West,281,0.0,0.0,75,0.00,,,0.00,Wunderground v.1.15,2013-03-30 10:35:00,
2013-03-30 06:40:00,49.6,42.3,30.19,West,281,0.0,0.0,76,0.00,,,0.00,Wunderground v.1.15,2013-03-30 10:40:00,
2013-03-30 06:50:00,49.4,42.5,30.20,West,281,0.0,0.0,77,0.00,,,0.00,Wunderground v.1.15,2013-03-30 10:50:00,
2013-03-30 06:55:00,49.2,42.3,30.20,West,281,0.0,0.0,77,0.00,,,0.00,Wunderground v.1.15,2013-03-30 10:55:00,
2013-03-30 07:05:00,49.3,42.7,30.19,West,281,0.0,0.0,78,0.00,,,0.00,Wunderground v.1.15,2013-03-30 11:05:00,
2013-03-30 07:15:00,49.7,42.1,30.19,West,281,0.0,0.0,75,0.00,,,0.00,Wunderground v.1.15,2013-03-30 11:15:00,
2013-03-30 07:20:00,50.1,42.5,30.19,West,281,0.0,0.0,75,0.00,,,0.00,Wunderground v.1.15,2013-03-30 11:20:00,
2013-03-30 07:30:00,50.1,42.8,30.20,West,281,0.0,0.0,76,0.00,,,0.00,Wunderground v.1.15,2013-03-30 11:30:00,
2013-03-30 07:35:00,49.9,43.0,30.21,West,281,0.0,0.0,77,0.00,,,0.00,Wunderground v.1.15,2013-03-30 11:35:00,
2013-03-30 07:45:00,49.3,43.1,30.20,West,281,0.0,0.0,79,0.00,,,0.00,Wunderground v.1.15,2013-03-30 11:45:00,
2013-03-30 07:55:00,49.6,43.7,30.20,West,281,0.0,0.0,80,0.00,,,0.00,Wunderground v.1.15,2013-03-30 11:55:00,
2013-03-30 08:00:00,49.6,43.0,30.20,West,281,0.0,0.0,78,0.00,,,0.00,Wunderground v.1.15,2013-03-30 12:00:00,
2013-03-30 08:10:00,49.6,43.4,30.20,West,281,0.0,0.0,79,0.00,,,0.00,Wunderground v.1.15,2013-03-30 12:10:00,
2013-03-30 08:15:00,49.8,43.9,30.20,West,281,0.0,0.0,80,0.00,,,0.00,Wunderground v.1.15,2013-03-30 12:15:00,
2013-03-30 08:25:00,50.5,43.9,30.19,West,281,1.0,3.0,78,0.00,,,0.00,Wunderground v.1.15,2013-03-30 12:25:00,
2013-03-30 08:30:00,51.5,43.1,30.19,West,281,1.0,1.0,73,0.00,,,0.00,Wunderground v.1.15,2013-03-30 12:30:00,
2013-03-30 08:40:00,51.9,42.8,30.19,NE,39,1.0,1.0,71,0.00,,,0.00,Wunderground v.1.15,2013-03-30 12:40:00,
2013-03-30 08:45:00,52.0,42.9,30.19,NE,39,1.0,1.0,71,0.00,,,0.00,Wunderground v.1.15,2013-03-30 12:45:00,
2013-03-30 08:55:00,53.0,43.1,30.19,ENE,64,1.0,4.0,69,0.00,,,0.00,Wunderground v.1.15,2013-03-30 12:55:00,
2013-03-30 09:00:00,53.1,42.4,30.19,East,98,2.0,5.0,67,0.00,,,0.00,Wunderground v.1.15,2013-03-30 13:00:00,
2013-03-30 09:10:00,53.5,42.4,30.20,NE,49,3.0,3.0,66,0.00,,,0.00,Wunderground v.1.15,2013-03-30 13:10:00,
2013-03-30 09:15:00,53.7,42.6,30.20,NE,35,3.0,6.0,66,0.00,,,0.00,Wunderground v.1.15,2013-03-30 13:15:00,
2013-03-30 09:25:00,53.8,43.1,30.19,NNE,26,5.0,5.0,67,0.00,,,0.00,Wunderground v.1.15,2013-03-30 13:25:00,
2013-03-30 09:30:00,53.8,43.1,30.19,East,92,3.0,5.0,67,0.00,,,0.00,Wunderground v.1.15,2013-03-30 13:30:00,
2013-03-30 09:40:00,55.0,44.2,30.19,ENE,78,3.0,3.0,67,0.00,,,0.00,Wunderground v.1.15,2013-03-30 13:40:00,
2013-03-30 09:50:00,55.6,44.4,30.19,NE,42,3.0,5.0,66,0.00,,,0.00,Wunderground v.1.15,2013-03-30 13:50:00,
2013-03-30 10:00:00,56.0,44.4,30.20,NE,52,3.0,4.0,65,0.00,,,0.00,Wunderground v.1.15,2013-03-30 14:00:00,
2013-03-30 10:10:00,56.0,44.0,30.19,NE,36,3.0,3.0,64,0.00,,,0.00,Wunderground v.1.15,2013-03-30 14:10:00,
2013-03-30 10:20:00,56.2,44.2,30.19,NE,46,3.0,3.0,64,0.00,,,0.00,Wunderground v.1.15,2013-03-30 14:20:00,
2013-03-30 10:30:00,56.7,44.2,30.19,East,89,3.0,3.0,63,0.00,,,0.00,Wunderground v.1.15,2013-03-30 14:30:00,
2013-03-30 10:40:00,57.6,44.2,30.19,NE,53,4.0,4.0,61,0.00,,,0.00,Wunderground v.1.15,2013-03-30 14:40:00,
2013-03-30 10:45:00,57.2,43.4,30.18,ENE,78,4.0,4.0,60,0.00,,,0.00,Wunderground v.1.15,2013-03-30 14:45:00,
2013-03-30 10:55:00,57.8,44.0,30.18,ENE,65,4.0,8.0,60,0.00,,,0.00,Wunderground v.1.15,2013-03-30 14:55:00,
2013-03-30 11:00:00,57.9,44.1,30.18,ENE,78,3.0,3.0,60,0.00,,,0.00,Wunderground v.1.15,2013-03-30 15:00:00,
2013-03-30 11:10:00,58.8,43.6,30.18,ENE,60,3.0,3.0,57,0.00,,,0.00,Wunderground v.1.15,2013-03-30 15:10:00,
2013-03-30 11:15:00,59.2,44.0,30.18,ESE,107,3.0,4.0,57,0.00,,,0.00,Wunderground v.1.15,2013-03-30 15:15:00,
2013-03-30 11:25:00,59.8,43.6,30.17,ENE,59,4.0,5.0,55,0.00,,,0.00,Wunderground v.1.15,2013-03-30 15:25:00,
2013-03-30 11:30:00,60.0,44.3,30.17,East,87,5.0,5.0,56,0.00,,,0.00,Wunderground v.1.15,2013-03-30 15:30:00,
2013-03-30 11:40:00,60.3,44.1,30.17,SE,126,4.0,4.0,55,0.00,,,0.00,Wunderground v.1.15,2013-03-30 15:40:00,
2013-03-30 11:45:00,60.7,44.4,30.16,East,92,5.0,8.0,55,0.00,,,0.00,Wunderground v.1.15,2013-03-30 15:45:00,
2013-03-30 11:55:00,60.5,42.8,30.17,South,173,4.0,6.0,52,0.00,,,0.00,Wunderground v.1.15,2013-03-30 15:55:00,
2013-03-30 12:05:00,60.9,44.1,30.16,SE,137,3.0,3.0,54,0.00,,,0.00,Wunderground v.1.15,2013-03-30 16:05:00,
2013-03-30 12:15:00,61.3,44.5,30.16,SE,140,4.0,4.0,54,0.00,,,0.00,Wunderground v.1.15,2013-03-30 16:15:00,
2013-03-30 12:20:00,61.6,43.8,30.16,SE,138,5.0,8.0,52,0.00,,,0.00,Wunderground v.1.15,2013-03-30 16:20:00,
2013-03-30 12:30:00,61.0,43.2,30.16,SE,144,5.0,5.0,52,0.00,,,0.00,Wunderground v.1.15,2013-03-30 16:30:00,
2013-03-30 12:35:00,61.1,43.3,30.16,SE,145,5.0,6.0,52,0.00,,,0.00,Wunderground v.1.15,2013-03-30 16:35:00,
2013-03-30 12:45:00,61.2,43.4,30.16,SE,130,6.0,6.0,52,0.00,,,0.00,Wunderground v.1.15,2013-03-30 16:45:00,
2013-03-30 12:50:00,61.3,42.5,30.15,SE,134,6.0,7.0,50,0.00,,,0.00,Wunderground v.1.15,2013-03-30 16:50:00,
2013-03-30 13:00:00,61.7,41.8,30.15,SSE,147,8.0,8.0,48,0.00,,,0.00,Wunderground v.1.15,2013-03-30 17:00:00,
2013-03-30 13:05:00,61.4,41.5,30.15,SE,140,8.0,11.0,48,0.00,,,0.00,Wunderground v.1.15,2013-03-30 17:05:00,
2013-03-30 13:15:00,62.5,43.6,30.15,SE,136,7.0,11.0,50,0.00,,,0.00,Wunderground v.1.15,2013-03-30 17:15:00,
2013-03-30 13:25:00,62.9,43.4,30.15,SE,142,7.0,13.0,49,0.00,,,0.00,Wunderground v.1.15,2013-03-30 17:25:00,
2013-03-30 13:30:00,62.6,44.2,30.14,South,180,6.0,6.0,51,0.00,,,0.00,Wunderground v.1.15,2013-03-30 17:30:00,
2013-03-30 13:40:00,62.4,44.0,30.13,SSE,147,9.0,9.0,51,0.00,,,0.00,Wunderground v.1.15,2013-03-30 17:40:00,
2013-03-30 13:45:00,62.7,43.8,30.14,SSE,149,8.0,9.0,50,0.00,,,0.00,Wunderground v.1.15,2013-03-30 17:45:00,
2013-03-30 13:55:00,62.4,43.0,30.13,SE,145,7.0,10.0,49,0.00,,,0.00,Wunderground v.1.15,2013-03-30 17:55:00,
2013-03-30 14:05:00,62.6,43.2,30.13,South,184,7.0,7.0,49,0.00,,,0.00,Wunderground v.1.15,2013-03-30 18:05:00,
2013-03-30 14:15:00,62.0,43.7,30.12,SSE,156,9.0,12.0,51,0.00,,,0.00,Wunderground v.1.15,2013-03-30 18:15:00,
2013-03-30 14:25:00,62.6,44.7,30.12,SSE,154,7.0,13.0,52,0.00,,,0.00,Wunderground v.1.15,2013-03-30 18:25:00,
2013-03-30 14:35:00,61.6,45.3,30.12,ESE,121,9.0,13.0,55,0.00,,,0.00,Wunderground v.1.15,2013-03-30 18:35:00,
2013-03-30 14:45:00,61.9,45.1,30.12,SE,138,9.0,11.0,54,0.00,,,0.00,Wunderground v.1.15,2013-03-30 18:45:00,
2013-03-30 14:50:00,61.9,45.5,30.11,South,175,8.0,8.0,55,0.00,,,0.00,Wunderground v.1.15,2013-03-30 18:50:00,
2013-03-30 15:00:00,61.6,45.3,30.11,SE,130,9.0,10.0,55,0.00,,,0.00,Wunderground v.1.15,2013-03-30 19:00:00,
2013-03-30 15:10:00,61.8,45.5,30.11,SE,141,8.0,8.0,55,0.00,,,0.00,Wunderground v.1.15,2013-03-30 19:10:00,
2013-03-30 15:20:00,61.4,46.0,30.10,ESE,121,8.0,13.0,57,0.00,,,0.00,Wunderground v.1.15,2013-03-30 19:20:00,
2013-03-30 15:25:00,61.0,45.7,30.10,SE,132,9.0,13.0,57,0.00,,,0.00,Wunderground v.1.15,2013-03-30 19:25:00,
2013-03-30 15:35:00,61.9,47.0,30.10,ESE,115,8.0,9.0,58,0.00,,,0.00,Wunderground v.1.15,2013-03-30 19:35:00,
2013-03-30 15:40:00,61.3,45.9,30.10,ESE,119,9.0,9.0,57,0.00,,,0.00,Wunderground v.1.15,2013-03-30 19:40:00,
2013-03-30 15:50:00,61.2,47.2,30.10,ESE,122,8.0,9.0,60,0.00,,,0.00,Wunderground v.1.15,2013-03-30 19:50:00,
2013-03-30 16:00:00,61.0,46.6,30.10,ESE,118,8.0,8.0,59,0.00,,,0.00,Wunderground v.1.15,2013-03-30 20:00:00,
2013-03-30 16:10:00,61.1,47.5,30.10,SSE,157,8.0,8.0,61,0.00,,,0.00,Wunderground v.1.15,2013-03-30 20:10:00,
2013-03-30 16:15:00,60.8,46.8,30.10,SE,144,8.0,8.0,60,0.00,,,0.00,Wunderground v.1.15,2013-03-30 20:15:00,
2013-03-30 16:25:00,60.8,47.7,30.09,SSE,147,7.0,9.0,62,0.00,,,0.00,Wunderground v.1.15,2013-03-30 20:25:00,
2013-03-30 16:30:00,60.5,47.4,30.09,SE,136,7.0,8.0,62,0.00,,,0.00,Wunderground v.1.15,2013-03-30 20:30:00,
2013-03-30 16:40:00,60.7,48.0,30.09,ESE,119,9.0,9.0,63,0.00,,,0.00,Wunderground v.1.15,2013-03-30 20:40:00,
2013-03-30 16:45:00,60.4,47.7,30.09,ESE,121,8.0,9.0,63,0.00,,,0.00,Wunderground v.1.15,2013-03-30 20:45:00,
2013-03-30 16:55:00,60.3,48.1,30.09,SE,145,8.0,11.0,64,0.00,,,0.00,Wunderground v.1.15,2013-03-30 20:55:00,
2013-03-30 17:00:00,60.3,47.6,30.09,East,98,8.0,8.0,63,0.00,,,0.00,Wunderground v.1.15,2013-03-30 21:00:00,
2013-03-30 17:10:00,59.9,47.7,30.08,SSE,158,8.0,8.0,64,0.00,,,0.00,Wunderground v.1.15,2013-03-30 21:10:00,
2013-03-30 17:15:00,59.6,47.4,30.08,ESE,105,8.0,9.0,64,0.00,,,0.00,Wunderground v.1.15,2013-03-30 21:15:00,
2013-03-30 17:25:00,59.4,47.2,30.08,SE,126,7.0,12.0,64,0.00,,,0.00,Wunderground v.1.15,2013-03-30 21:25:00,
2013-03-30 17:30:00,58.9,47.2,30.08,SE,135,8.0,8.0,65,0.00,,,0.00,Wunderground v.1.15,2013-03-30 21:30:00,
2013-03-30 17:40:00,59.4,47.6,30.08,East,99,7.0,7.0,65,0.00,,,0.00,Wunderground v.1.15,2013-03-30 21:40:00,
2013-03-30 17:45:00,59.2,47.4,30.08,SE,133,7.0,11.0,65,0.00,,,0.00,Wunderground v.1.15,2013-03-30 21:45:00,
2013-03-30 17:55:00,59.0,47.7,30.08,East,94,7.0,9.0,66,0.00,,,0.00,Wunderground v.1.15,2013-03-30 21:55:00,
2013-03-30 18:05:00,59.1,47.7,30.08,East,93,7.0,8.0,66,0.00,,,0.00,Wunderground v.1.15,2013-03-30 22:05:00,
2013-03-30 18:15:00,59.0,48.1,30.08,East,101,8.0,8.0,67,0.00,,,0.00,Wunderground v.1.15,2013-03-30 22:15:00,
2013-03-30 18:20:00,59.1,48.1,30.08,SE,141,7.0,7.0,67,0.00,,,0.00,Wunderground v.1.15,2013-03-30 22:20:00,
2013-03-30 18:30:00,58.7,47.8,30.08,ESE,108,6.0,6.0,67,0.00,,,0.00,Wunderground v.1.15,2013-03-30 22:30:00,
2013-03-30 18:35:00,58.6,48.1,30.08,SE,131,6.0,6.0,68,0.00,,,0.00,Wunderground v.1.15,2013-03-30 22:35:00,
2013-03-30 18:45:00,57.8,48.1,30.08,ESE,103,6.0,7.0,70,0.00,,,0.00,Wunderground v.1.15,2013-03-30 22:45:00,
2013-03-30 18:55:00,57.3,48.0,30.08,SE,128,4.0,5.0,71,0.00,,,0.00,Wunderground v.1.15,2013-03-30 22:55:00,
2013-03-30 19:00:00,57.1,47.8,30.08,SE,124,5.0,5.0,71,0.00,,,0.00,Wunderground v.1.15,2013-03-30 23:00:00,
2013-03-30 19:10:00,56.8,47.9,30.08,East,89,4.0,5.0,72,0.00,,,0.00,Wunderground v.1.15,2013-03-30 23:10:00,
2013-03-30 19:20:00,56.3,47.8,30.07,East,98,5.0,6.0,73,0.00,,,0.00,Wunderground v.1.15,2013-03-30 23:20:00,
2013-03-30 19:30:00,55.8,47.3,30.08,East,99,6.0,6.0,73,0.00,,,0.00,Wunderground v.1.15,2013-03-30 23:30:00,
2013-03-30 19:35:00,55.4,47.2,30.08,SE,127,4.0,6.0,74,0.00,,,0.00,Wunderground v.1.15,2013-03-30 23:35:00,
2013-03-30 19:45:00,55.1,47.3,30.08,ESE,107,4.0,5.0,75,0.00,,,0.00,Wunderground v.1.15,2013-03-30 23:45:00,
2013-03-30 19:50:00,54.9,47.1,30.08,East,93,4.0,5.0,75,0.00,,,0.00,Wunderground v.1.15,2013-03-30 23:50:00,
2013-03-30 20:00:00,54.4,47.0,30.08,ESE,111,3.0,3.0,76,0.00,,,0.00,Wunderground v.1.15,2013-03-31 00:00:00,
2013-03-30 20:05:00,54.2,47.1,30.08,ESE,109,3.0,3.0,77,0.00,,,0.00,Wunderground v.1.15,2013-03-31 00:05:00,
2013-03-30 20:15:00,53.9,46.9,30.08,East,100,3.0,5.0,77,0.00,,,0.00,Wunderground v.1.15,2013-03-31 00:15:00,
2013-03-30 20:20:00,53.8,46.8,30.08,East,100,3.0,5.0,77,0.00,,,0.00,Wunderground v.1.15,2013-03-31 00:20:00,
2013-03-30 20:30:00,53.4,46.7,30.08,ESE,107,3.0,3.0,78,0.00,,,0.00,Wunderground v.1.15,2013-03-31 00:30:00,
2013-03-30 20:35:00,53.2,46.5,30.08,SE,125,2.0,3.0,78,0.00,,,0.00,Wunderground v.1.15,2013-03-31 00:35:00,
2013-03-30 20:45:00,53.1,46.8,30.09,East,95,3.0,3.0,79,0.00,,,0.00,Wunderground v.1.15,2013-03-31 00:45:00,
2013-03-30 20:50:00,53.0,46.7,30.09,East,100,2.0,2.0,79,0.00,,,0.00,Wunderground v.1.15,2013-03-31 00:50:00,
2013-03-30 21:00:00,52.7,46.7,30.09,East,100,2.0,2.0,80,0.00,,,0.00,Wunderground v.1.15,2013-03-31 01:00:00,
2013-03-30 21:05:00,52.4,46.4,30.09,East,100,2.0,2.0,80,0.00,,,0.00,Wunderground v.1.15,2013-03-31 01:05:00,
2013-03-30 21:15:00,52.1,46.4,30.09,East,98,1.0,2.0,81,0.00,,,0.00,Wunderground v.1.15,2013-03-31 01:15:00,
2013-03-30 21:20:00,52.2,46.5,30.09,East,99,1.0,3.0,81,0.00,,,0.00,Wunderground v.1.15,2013-03-31 01:20:00,
2013-03-30 21:30:00,52.0,46.7,30.09,East,92,3.0,3.0,82,0.00,,,0.00,Wunderground v.1.15,2013-03-31 01:30:00,
2013-03-30 21:35:00,51.9,46.6,30.09,East,93,3.0,3.0,82,0.00,,,0.00,Wunderground v.1.15,2013-03-31 01:35:00,
2013-03-30 21:45:00,51.5,46.5,30.09,East,93,0.0,1.0,83,0.00,,,0.00,Wunderground v.1.15,2013-03-31 01:45:00,
2013-03-30 21:50:00,51.3,46.3,30.09,East,93,0.0,0.0,83,0.00,,,0.00,Wunderground v.1.15,2013-03-31 01:50:00,
2013-03-30 22:00:00,51.2,46.5,30.09,East,93,1.0,1.0,84,0.00,,,0.00,Wunderground v.1.15,2013-03-31 02:00:00,
2013-03-30 22:10:00,50.9,46.6,30.09,East,93,0.0,0.0,85,0.00,,,0.00,Wunderground v.1.15,2013-03-31 02:10:00,
2013-03-30 22:15:00,50.9,46.6,30.09,East,93,0.0,0.0,85,0.00,,,0.00,Wunderground v.1.15,2013-03-31 02:15:00,
2013-03-30 22:25:00,51.0,46.6,30.09,East,96,1.0,2.0,85,0.00,,,0.00,Wunderground v.1.15,2013-03-31 02:25:00,
2013-03-30 22:35:00,50.9,46.6,30.09,East,96,1.0,2.0,85,0.00,,,0.00,Wunderground v.1.15,2013-03-31 02:35:00,
2013-03-30 22:40:00,50.8,46.8,30.09,East,96,2.0,2.0,86,0.00,,,0.00,Wunderground v.1.15,2013-03-31 02:40:00,
2013-03-30 22:50:00,50.8,46.8,30.09,East,96,1.0,1.0,86,0.00,,,0.00,Wunderground v.1.15,2013-03-31 02:50:00,
2013-03-30 22:55:00,50.7,46.7,30.09,East,96,1.0,1.0,86,0.00,,,0.00,Wunderground v.1.15,2013-03-31 02:55:00,
2013-03-30 23:05:00,50.7,46.7,30.09,East,96,0.0,1.0,86,0.00,,,0.00,Wunderground v.1.15,2013-03-31 03:05:00,
2013-03-30 23:10:00,50.5,46.5,30.09,East,96,0.0,0.0,86,0.00,,,0.00,Wunderground v.1.15,2013-03-31 03:10:00,
2013-03-30 23:20:00,50.3,46.6,30.08,East,96,0.0,0.0,87,0.00,,,0.00,Wunderground v.1.15,2013-03-31 03:20:00,
2013-03-30 23:30:00,50.3,46.9,30.08,East,96,0.0,0.0,88,0.00,,,0.00,Wunderground v.1.15,2013-03-31 03:30:00,
2013-03-30 23:35:00,50.4,46.7,30.08,East,96,0.0,0.0,87,0.00,,,0.00,Wunderground v.1.15,2013-03-31 03:35:00,
2013-03-30 23:45:00,50.8,47.4,30.08,East,96,0.0,0.0,88,0.00,,,0.00,Wunderground v.1.15,2013-03-31 03:45:00,
2013-03-30 23:55:00,50.7,47.3,30.08,East,96,0.0,1.0,88,0.00,,,0.00,Wunderground v.1.15,2013-03-31 03:55:00,